Location: Unspecified
(52.4292°N, 19.3359°E)
Time: 02:13:22
(UTC+02:00)

Vanguard 1 Rocket - Pass Details

Date: 19 May 2024
Orbit: 649 x 4221 km, 34.3° (Epoch: 13 June)

Event Time Altitude Azimuth Distance (km) Brightness Sun altitude
Rises 07:51:00 0° 185° (S) 8,141 12.2 26.5°
Reaches altitude 10° 08:03:41 10° 158° (SSE) 6,289 12.1 28.4°
Maximum altitude 08:07:57 11° 145° (SE) 5,810 12.2 29.1°
Drops below altitude 10° 08:11:45 10° 132° (SE) 5,523 12.3 29.7°
Sets 08:19:53 0° 102° (ESE) 5,586 12.6 30.9°
